Theta_e
347 349 350 351 352 352 350 349 349 348 349 348 347 344 342 341 342 341 342 339 337 340 340 340 341 341 339 339 340 340 341 343 345 344 345 345 346 342 340 338 338 337 337 337 336 336 335 335 335 333 332 332 332 332 330 331 331 330 330 330 330 331 331 330 330 329 329 330 329 330 330 329 328 327 327 327 328 330 333 333 335 335 335 336 336
348 349 347 349 351 352 351 350 348 348 349 348 349 349 345 341 340 340 338 341 338 339 339 340 340 341 341 340 340 340 340 341 343 344 346 346 347 344 340 339 339 337 338 338 338 336 337 336 335 334 334 333 332 332 331 331 331 330 330 329 329 330 329 330 330 329 329 329 330 330 329 329 329 329 328 327 329 331 332 333 334 335 335 335 335
347 348 346 347 348 349 350 350 348 348 350 348 350 349 349 348 344 340 341 341 341 340 340 338 337 338 342 340 341 343 341 340 340 341 344 346 346 347 344 340 339 338 338 339 337 336 336 336 336 336 335 334 334 333 332 332 332 330 330 329 329 329 328 330 330 329 329 329 330 330 329 330 329 329 329 329 329 330 330 332 333 334 334 334 334
346 345 345 344 345 345 348 349 349 349 351 349 349 350 348 345 347 349 346 343 340 340 343 339 337 335 337 338 341 341 340 340 340 340 341 345 346 347 346 343 340 339 339 338 339 337 336 337 337 336 336 335 335 334 334 334 332 331 330 329 329 328 328 330 330 329 330 329 330 330 330 330 330 330 329 329 330 329 329 330 332 333 333 333 333
346 345 344 344 345 346 347 349 349 350 350 350 349 349 348 347 347 348 347 347 342 340 338 340 339 338 338 338 341 340 340 339 339 340 340 343 345 345 346 346 344 339 339 338 339 339 337 337 337 337 337 338 337 335 334 334 332 332 331 329 329 328 328 329 330 329 329 330 330 331 330 331 330 330 330 330 329 328 328 329 332 333 333 333 333
346 345 344 344 345 346 347 347 348 349 350 350 347 347 346 346 345 344 343 343 342 343 340 338 337 338 339 339 339 341 341 337 337 338 340 339 344 346 345 344 344 343 340 339 338 338 339 339 338 338 338 338 337 336 334 333 334 333 331 329 329 329 329 330 330 329 330 331 331 331 331 331 331 330 330 330 329 329 328 329 330 332 332 332 333
345 346 344 343 344 344 343 343 346 347 347 348 347 346 346 346 344 343 343 342 341 342 343 342 337 336 337 339 339 340 342 339 337 336 335 335 341 343 345 344 344 344 342 342 339 339 339 339 338 338 338 338 338 336 333 332 335 334 331 330 329 330 330 330 331 329 331 331 331 331 332 331 331 331 330 330 330 329 329 329 331 332 332 332 332
346 346 345 345 344 344 344 346 345 346 346 345 345 344 343 343 345 345 342 340 340 340 342 341 342 342 342 340 340 339 338 339 339 338 337 336 336 342 344 343 344 344 344 342 342 338 338 338 338 338 338 338 338 336 335 332 334 334 331 330 329 330 331 331 331 329 331 331 332 332 331 332 331 331 331 330 330 330 329 329 330 331 331 331 331
347 347 347 346 344 346 346 346 346 345 344 344 342 342 342 341 341 342 342 339 341 341 341 341 340 340 341 343 342 338 335 336 338 339 339 337 338 340 342 343 342 343 344 343 344 343 338 338 338 338 338 338 337 335 335 332 334 334 332 330 330 329 331 332 330 330 332 332 332 332 332 332 331 331 331 330 330 330 329 329 329 330 330 330 330
347 346 346 346 345 345 345 346 345 344 343 343 342 343 342 341 340 341 340 340 338 338 339 340 340 340 339 340 341 341 341 342 340 336 337 336 337 340 341 342 341 342 342 343 342 342 342 338 338 338 338 337 336 336 334 331 333 334 332 331 330 330 329 330 330 330 333 332 332 332 331 331 331 331 331 331 330 330 330 330 329 330 330 330 330
346 346 347 346 345 346 346 346 345 344 343 341 342 342 342 341 340 339 341 341 340 340 339 338 338 339 340 339 338 340 342 343 342 341 339 338 336 338 341 341 342 342 344 343 342 342 344 342 337 338 336 337 337 336 335 332 332 334 333 332 331 331 330 330 331 331 331 332 332 332 331 331 331 331 331 331 331 330 330 330 330 331 330 330 330
346 347 346 346 345 345 348 348 347 344 342 341 339 339 340 339 339 339 339 339 340 341 342 340 340 341 339 339 340 341 342 341 341 341 341 340 338 338 337 339 342 343 343 342 342 342 342 343 342 339 339 337 335 335 335 333 333 333 333 331 331 332 331 330 332 333 332 332 333 332 331 331 331 331 331 331 331 331 331 331 331 330 330 330 330
345 346 347 345 345 346 348 345 344 342 341 343 341 340 340 341 340 340 338 336 339 342 341 340 336 335 338 339 337 341 342 340 339 339 340 339 339 338 338 339 341 342 342 342 342 341 342 342 342 340 339 340 336 335 334 333 334 333 332 331 332 333 332 331 333 334 333 333 333 332 331 331 331 331 331 331 331 331 331 331 331 330 330 330 330
344 345 346 346 344 344 346 345 342 343 343 342 342 340 340 340 341 337 339 338 338 340 338 337 333 331 330 330 332 336 340 340 337 336 338 339 340 340 341 340 339 339 340 340 341 340 340 342 342 340 339 339 338 336 334 334 333 334 332 332 333 334 332 331 332 335 334 333 333 332 331 331 331 331 331 331 331 331 331 331 331 330 330 331 330
343 344 344 343 343 342 342 342 342 341 340 340 339 338 341 343 341 335 336 338 338 340 339 339 331 331 332 329 326 327 333 336 338 338 338 339 339 339 339 340 340 339 339 339 338 337 339 340 341 341 341 339 339 338 335 333 332 332 332 332 333 334 333 332 333 335 335 335 334 333 332 331 330 331 332 331 331 331 331 331 331 330 330 330 330
340 339 340 341 341 341 341 341 341 341 340 338 339 338 338 338 341 339 338 332 333 335 339 338 335 331 324 325 326 327 321 326 331 333 339 340 339 338 338 336 339 339 340 339 337 338 338 339 339 341 341 340 339 341 336 336 332 332 330 329 331 333 334 333 334 335 336 335 334 333 332 331 331 331 331 331 330 331 330 330 331 330 330 330 330
338 337 337 338 338 339 339 340 340 340 340 338 337 337 338 340 339 338 336 333 331 335 336 338 337 336 330 324 322 322 324 328 326 329 337 335 339 338 338 338 336 337 337 339 340 338 337 337 339 339 340 340 339 337 337 335 334 334 332 330 332 334 334 333 333 335 337 336 334 333 332 332 331 331 330 330 330 330 330 330 330 330 330 330 330
336 336 336 336 337 337 338 337 337 337 338 337 337 337 338 336 337 337 335 336 333 333 334 336 337 337 336 332 327 323 323 327 327 323 334 337 338 338 339 339 338 337 338 339 339 339 339 338 338 338 339 340 339 338 337 335 334 332 332 330 329 332 332 333 334 335 337 336 335 335 334 332 331 331 331 331 331 330 330 330 329 330 330 330 330
335 334 334 335 336 337 337 336 337 337 336 337 336 337 336 337 337 336 336 335 335 331 332 332 335 336 336 335 334 333 333 326 322 326 323 331 335 335 336 340 340 338 336 337 339 339 338 337 337 337 338 339 340 338 338 337 334 332 333 330 329 327 328 328 333 336 338 339 338 337 335 333 332 331 332 331 331 330 330 330 330 330 330 329 330
332 332 332 332 333 334 334 335 334 335 335 335 335 336 336 337 338 338 336 335 334 332 332 334 331 331 335 335 335 335 333 332 330 326 324 321 325 334 337 338 339 340 338 337 337 338 338 338 336 338 337 337 338 337 337 337 335 333 331 327 327 327 327 327 326 327 334 336 338 335 336 334 333 332 333 331 330 330 329 329 329 330 330 330 330
329 330 331 331 331 332 332 332 333 333 333 334 334 334 335 335 335 335 334 334 334 334 333 332 333 330 331 332 334 332 332 333 332 331 325 322 322 326 328 332 333 340 340 340 339 337 337 336 335 337 334 338 339 338 337 337 336 334 331 325 327 326 326 326 322 320 320 332 337 336 336 334 334 333 332 331 330 330 329 329 329 329 330 329 329
329 328 329 329 329 329 328 329 330 330 330 331 332 332 332 333 333 333 334 334 334 334 332 332 335 336 335 333 331 331 332 330 329 328 327 328 323 324 328 326 325 331 339 339 337 338 337 336 335 336 335 337 337 339 337 337 337 335 331 325 327 326 327 326 320 320 320 322 332 333 334 333 334 334 333 332 332 330 329 329 329 329 330 329 328
327 327 327 327 328 327 327 327 328 328 327 327 328 328 329 330 331 331 332 332 333 333 334 334 333 333 334 333 330 328 329 327 328 328 326 325 324 325 327 327 326 328 335 339 337 336 336 337 338 336 335 337 337 337 339 338 335 333 328 324 326 326 326 324 319 317 319 324 329 334 334 334 334 334 333 332 332 331 330 330 331 329 329 329 328
324 324 323 324 325 324 325 325 324 326 325 326 327 326 327 328 328 328 329 330 331 329 330 331 333 332 334 332 332 332 331 331 331 331 328 326 325 324 325 326 325 326 330 337 339 337 336 336 336 335 337 334 336 337 336 336 337 330 332 324 325 325 327 326 320 318 314 319 324 330 334 335 334 333 333 333 332 331 332 330 330 330 329 329 328
320 320 321 323 323 322 321 321 322 323 322 323 324 325 324 325 326 327 326 326 326 327 326 328 329 327 328 331 331 332 331 333 332 332 332 332 330 325 326 327 324 326 329 331 332 337 337 336 336 334 334 334 334 336 336 339 340 332 328 327 323 323 323 327 326 320 316 315 319 326 332 333 334 334 333 332 332 331 331 330 326 323 324 324 326
319 319 319 321 321 321 321 320 321 321 320 321 322 323 323 322 324 323 324 325 325 325 325 327 327 327 327 326 328 330 331 332 332 332 331 330 328 327 325 324 325 324 327 326 329 330 334 336 336 335 334 333 333 336 337 337 337 330 325 332 326 321 320 322 324 321 318 315 315 321 325 328 331 332 332 331 330 327 325 322 320 321 318 316 317
318 319 319 320 320 320 319 318 319 319 319 320 319 320 320 320 321 321 321 322 322 322 323 324 324 325 325 324 325 326 328 331 332 331 332 331 330 328 325 320 320 323 323 325 326 329 330 334 336 336 333 334 335 337 337 337 334 329 325 333 336 320 318 319 321 323 319 316 313 315 317 322 323 324 324 324 323 320 321 323 322 320 319 316 317
319 318 318 318 318 318 318 317 317 316 317 316 316 316 316 317 317 317 317 318 317 318 320 322 322 323 323 323 323 323 325 326 328 330 331 331 330 331 329 327 319 317 323 322 323 324 331 329 334 336 335 335 335 335 333 332 336 328 325 336 336 330 317 316 319 322 321 318 316 315 315 316 318 319 319 321 323 322 323 323 321 320 318 316 321
316 317 317 317 316 316 315 315 314 315 314 314 314 314 314 315 314 314 314 314 314 315 316 317 318 319 320 321 321 322 324 326 325 326 328 330 330 330 331 326 325 321 318 318 322 322 326 332 329 334 336 336 336 337 334 334 332 331 334 335 335 335 322 316 315 318 319 317 316 314 316 318 318 319 324 324 324 324 324 321 320 319 319 319 323
315 315 315 315 315 314 314 313 314 314 314 313 313 313 314 313 313 313 312 312 312 314 315 314 315 316 317 317 319 320 323 324 323 325 324 325 327 328 329 328 330 324 321 317 318 326 327 334 333 331 334 333 335 336 336 337 329 332 335 334 334 334 321 315 314 313 315 316 313 311 312 315 318 322 326 324 323 322 321 320 318 318 319 321 324
314 314 314 313 313 312 313 312 313 313 313 312 312 312 313 312 312 311 312 312 311 312 313 314 314 314 315 315 317 317 319 320 321 322 324 324 325 326 328 329 328 329 325 322 317 325 330 327 333 335 334 335 335 334 335 335 332 331 334 335 334 326 322 319 315 314 314 314 313 312 314 314 314 317 320 323 323 322 322 322 320 320 322 324 320
313 313 311 311 311 311 311 311 311 312 311 311 312 312 312 311 311 311 311 311 311 311 312 313 313 314 314 314 314 315 316 317 317 319 320 322 324 323 324 327 327 328 329 323 320 320 330 330 331 334 335 333 334 334 335 333 334 325 332 333 333 324 327 330 314 314 314 314 313 315 319 316 313 316 319 321 321 323 323 322 323 323 321 318 315
312 311 310 310 310 311 310 310 310 311 310 311 311 311 311 310 310 310 310 310 310 311 312 312 313 313 313 313 314 315 317 316 316 317 318 320 321 321 322 322 323 324 323 323 322 322 326 333 333 332 335 334 332 333 331 332 332 332 327 332 333 331 331 332 328 314 313 312 312 311 312 312 311 317 320 322 323 323 321 319 320 317 316 315 313
311 310 310 310 310 310 310 310 310 310 310 310 310 310 309 309 309 309 309 310 310 310 311 311 312 313 314 313 313 314 316 315 315 315 317 316 317 316 317 317 317 319 323 321 320 321 321 326 329 334 333 334 329 333 330 330 331 330 331 330 332 334 332 332 331 324 312 312 311 310 311 311 310 313 314 314 315 315 316 313 313 312 315 312 308
311 310 310 310 310 310 309 309 309 308 308 308 309 309 309 308 307 308 309 309 309 309 310 310 311 312 312 313 313 313 313 312 313 314 314 313 313 313 314 316 316 317 318 321 320 318 320 323 327 328 331 332 330 329 331 332 330 331 332 329 330 331 331 333 331 330 312 311 310 311 310 310 310 310 311 312 312 312 313 311 311 310 310 310 306
310 310 310 310 309 309 308 308 307 307 306 307 307 308 307 307 307 308 308 308 309 309 310 310 310 310 311 310 311 311 311 310 310 310 310 310 309 309 310 312 313 314 316 317 318 319 320 319 324 325 330 331 331 332 332 332 330 331 330 331 331 330 331 332 332 332 320 310 310 310 311 311 309 309 309 310 311 311 311 310 310 309 308 309 308
310 310 310 309 308 307 307 306 306 305 305 305 305 305 307 308 308 308 308 308 309 309 310 309 310 309 309 308 308 308 308 308 307 306 307 306 306 306 307 308 309 311 313 314 315 318 319 319 321 325 329 330 331 334 333 329 329 330 331 330 329 329 330 332 330 331 322 310 311 310 310 310 309 308 308 309 310 310 310 309 309 309 308 308 308
309 309 308 308 307 306 306 305 305 305 305 304 304 304 305 307 308 308 308 309 309 308 309 309 309 309 308 308 307 307 306 305 305 304 304 304 304 304 304 304 306 308 309 310 312 315 317 318 320 321 326 327 328 330 333 332 328 326 327 329 329 329 328 328 330 331 330 321 319 317 313 311 310 308 309 309 309 309 309 309 309 309 308 308 307
308 307 307 307 307 306 305 305 304 304 304 303 302 303 303 305 306 307 307 308 308 308 308 308 308 308 308 307 306 306 305 304 303 302 302 302 302 302 303 303 304 305 306 307 309 310 312 315 319 322 323 327 329 326 330 331 330 328 325 326 324 327 327 327 327 330 331 328 318 313 315 315 315 315 309 308 308 310 309 309 309 309 309 308 307
307 306 306 306 306 306 306 305 305 304 304 302 301 300 301 303 306 306 306 307 306 307 308 307 308 307 307 306 305 305 304 304 302 302 302 300 300 300 302 302 303 303 303 304 306 308 310 313 316 318 322 324 327 329 330 328 325 326 327 325 322 323 324 327 328 327 329 329 323 321 314 314 314 314 309 308 309 310 309 309 310 310 309 308 306
307 306 306 306 306 305 305 305 304 304 303 301 299 298 299 301 305 305 305 305 306 305 305 305 306 305 305 305 305 305 305 305 302 301 300 299 300 299 299 300 301 300 301 303 304 305 307 310 312 317 321 322 324 326 325 323 322 321 324 325 321 323 323 324 326 329 328 327 324 323 321 321 319 320 320 318 317 313 314 312 314 310 309 307 306
306 306 306 306 306 305 304 304 305 304 302 300 296 294 295 298 303 304 305 305 305 305 304 303 303 304 304 304 304 305 303 302 301 298 297 297 298 299 299 299 299 299 300 301 301 303 305 307 310 314 317 318 323 326 325 324 325 325 324 324 320 321 322 322 324 326 328 328 325 323 323 325 323 322 321 317 319 316 321 318 323 317 311 306 306
306 306 306 306 306 305 304 304 304 303 302 298 293 292 292 293 299 304 304 304 304 304 303 302 301 302 302 302 303 303 302 301 301 298 296 296 295 295 296 297 298 300 300 300 301 303 303 305 309 313 316 318 322 325 326 325 325 327 327 326 323 321 318 318 317 322 329 328 325 323 322 324 322 321 321 318 320 319 321 321 314 311 309 306 306
306 307 306 305 305 306 305 304 303 303 301 294 291 292 292 291 294 302 305 304 303 303 302 302 301 301 301 301 301 302 301 301 301 300 298 296 295 295 296 296 297 297 297 301 302 303 304 304 306 310 315 318 321 324 326 327 327 326 323 323 323 323 321 319 319 317 325 329 324 321 322 323 323 323 322 319 321 321 321 318 310 309 308 306 305
306 305 305 305 305 305 305 304 303 302 300 293 291 292 292 291 292 297 304 303 302 302 302 301 302 301 300 300 300 301 300 302 301 298 298 299 297 297 299 300 300 300 298 296 295 301 304 304 303 305 309 315 318 320 324 328 330 326 325 321 321 323 324 321 320 321 323 326 324 320 320 322 322 319 321 321 320 322 321 313 310 308 308 306 305
305 305 305 305 304 304 304 304 303 302 299 293 291 291 292 291 291 294 305 303 303 302 301 301 301 301 300 299 298 298 299 299 299 296 296 297 300 302 303 304 304 304 301 300 299 299 300 303 304 304 308 314 315 319 323 327 327 324 323 322 325 323 322 321 323 323 323 325 322 320 318 320 321 321 319 321 322 323 323 317 308 307 307 306 305
304 303 303 304 304 304 304 304 304 302 299 291 291 291 291 291 290 295 305 303 303 303 302 302 301 301 300 299 299 298 298 298 297 294 294 296 299 300 300 301 302 303 304 305 305 304 304 305 305 306 308 311 315 319 321 324 326 328 328 327 326 325 323 323 325 325 323 324 324 320 315 320 321 320 320 322 323 322 323 314 308 307 306 306 304
304 304 304 303 303 303 303 304 303 302 299 291 291 291 291 291 291 304 303 303 302 301 301 301 301 301 300 299 298 297 297 297 295 291 292 295 299 298 297 298 300 301 302 302 299 299 302 303 303 303 302 301 296 301 303 310 320 326 327 328 328 325 322 318 317 319 319 321 323 320 316 318 320 318 318 322 323 320 322 323 309 307 306 305 304
303 303 303 303 303 303 302 303 303 301 300 294 290 291 291 290 296 304 303 302 301 301 301 301 301 301 300 299 298 297 297 296 293 290 290 293 298 296 296 297 298 298 298 301 299 298 297 296 297 296 295 295 296 296 296 295 301 310 321 320 319 321 319 316 316 315 316 317 320 321 318 316 318 317 317 317 318 317 319 320 317 307 306 305 304
302 303 303 303 303 303 302 301 302 301 300 296 291 291 291 290 294 303 302 301 302 301 301 301 301 301 300 299 299 297 296 296 291 290 290 294 297 296 295 295 295 294 295 298 301 302 299 298 298 297 297 297 298 299 297 297 297 305 317 316 320 321 317 317 316 316 316 316 316 320 316 316 317 316 307 305 304 302 305 314 316 311 305 305 304
303 303 303 303 303 303 303 301 299 301 301 298 292 291 291 291 295 303 301 301 300 300 300 300 301 300 300 300 297 295 295 294 290 290 290 293 296 295 295 294 293 292 293 297 298 298 300 301 301 302 303 303 307 308 307 299 300 304 309 309 313 317 317 318 317 315 312 315 319 321 314 311 312 308 307 304 302 303 303 304 307 310 309 309 308
Wind_Speed
1 1 1 1 1 1 0 1 0 0 1 2 2 2 3 3 3 4 4 4 4 5 6 6 5 5 5 5 5 4 5 5 5 4 5 4 5 9 13 13 10 10 10 10 8 9 10 8 8 8 8 9 9 8 7 7 6 5 5 5 5 4 5 4 4 5 6 6 5 5 5 4 4 5 4 4 3 5 6 7 8 10 11 11 12
0 1 1 1 1 1 1 1 1 1 2 3 2 2 2 2 4 5 5 4 5 5 5 6 7 6 6 6 6 5 4 5 5 5 5 5 5 4 14 13 11 11 11 10 10 10 11 10 9 9 9 9 10 8 7 7 6 6 6 6 6 5 6 4 5 5 6 7 7 6 6 6 5 4 3 4 4 8 7 8 9 10 11 12 12
1 1 1 0 1 1 1 1 1 1 1 1 2 2 2 3 3 4 4 5 4 4 5 6 7 8 7 7 7 5 5 5 5 6 6 6 5 5 10 15 14 13 11 9 10 10 10 11 10 11 9 9 11 9 8 7 8 7 7 6 5 6 7 6 6 6 6 7 7 7 6 6 6 5 4 6 6 7 7 8 10 11 12 12 12
1 1 1 0 1 1 1 1 0 1 1 1 2 2 3 3 4 3 4 5 6 5 5 6 6 8 8 8 6 5 5 4 4 6 6 7 7 6 5 10 15 15 13 11 9 10 11 11 12 10 11 9 11 10 8 9 8 8 7 7 7 6 8 8 7 7 7 7 8 8 7 7 7 6 5 6 7 7 6 6 10 10 11 12 12
2 1 1 1 1 0 0 1 1 0 0 1 2 3 3 3 4 4 5 5 5 6 7 6 6 7 7 7 5 6 4 3 4 5 7 8 7 7 7 7 9 15 14 14 11 10 12 12 11 10 11 11 11 11 9 10 9 9 8 8 7 7 8 8 8 8 8 8 8 8 8 8 7 7 7 7 7 7 7 6 9 10 10 11 12
3 3 2 1 1 0 0 1 1 2 1 1 2 2 3 3 4 4 4 5 6 6 6 7 7 7 6 7 7 6 5 6 5 5 5 8 8 7 7 7 7 8 11 16 14 12 12 12 13 12 12 13 13 13 11 11 11 10 9 8 9 8 9 9 10 9 9 8 9 9 9 9 8 8 7 7 7 7 7 7 9 11 11 12 12
3 2 2 1 1 1 1 1 1 2 2 0 2 2 3 3 3 4 4 4 5 6 7 7 8 8 8 7 7 6 6 6 6 7 7 8 9 9 8 8 7 7 8 8 14 15 13 13 14 12 13 13 14 13 10 10 12 12 11 9 9 9 9 10 11 10 10 10 10 10 10 10 9 8 8 7 7 8 9 8 11 11 11 12 13
2 2 2 1 1 0 1 1 2 2 2 3 3 4 4 4 3 4 5 6 5 6 6 7 7 8 8 7 6 6 8 8 7 8 7 8 9 9 8 8 8 8 7 7 7 13 17 14 13 12 10 13 15 13 13 10 12 12 11 10 10 10 9 11 12 11 10 10 11 11 11 11 10 9 8 8 7 8 9 11 12 12 13 13 13
2 1 1 1 0 0 1 2 2 2 2 2 3 3 4 5 5 6 6 6 6 7 7 6 7 7 8 9 8 8 10 9 9 8 7 8 10 9 9 9 9 8 7 7 7 6 15 16 14 13 10 9 14 14 13 12 13 14 12 11 11 11 11 13 12 11 11 11 12 12 12 12 12 10 10 9 9 9 10 11 12 12 13 13 12
1 1 1 1 1 1 0 1 1 2 3 3 3 3 4 4 6 5 6 6 7 7 8 7 7 7 7 8 8 8 9 9 9 10 9 10 9 9 9 8 9 9 9 8 8 7 8 15 16 14 12 11 11 13 14 11 14 15 13 12 13 13 13 14 12 13 12 13 13 13 13 12 12 11 11 10 10 10 10 10 12 12 12 13 12
1 1 1 1 1 1 1 1 2 2 3 4 4 4 4 5 6 7 6 6 6 7 8 8 8 7 7 8 8 9 9 8 8 9 10 9 9 9 8 8 8 9 9 9 9 8 8 8 10 11 12 13 11 13 15 13 14 15 15 14 14 15 15 14 15 13 13 13 13 13 13 13 12 12 12 12 11 10 11 11 12 13 13 13 13
1 1 1 1 2 2 1 2 3 3 4 5 5 4 5 6 6 7 7 7 6 6 6 7 7 8 8 9 9 10 11 9 9 9 9 9 10 9 9 9 9 9 9 9 8 9 9 8 10 10 10 14 16 15 14 14 12 14 16 15 15 15 16 15 16 15 13 14 15 15 14 14 13 13 13 13 13 12 12 12 12 13 14 14 13
3 3 2 2 2 2 2 3 3 4 4 5 6 6 6 6 6 6 7 7 6 4 5 5 7 8 8 9 9 9 10 11 11 10 10 9 9 10 9 9 9 9 8 9 9 10 9 9 8 8 9 8 13 15 16 14 13 13 17 16 17 17 17 17 18 17 15 16 16 16 15 14 14 13 13 14 14 13 13 13 13 12 13 14 14
4 3 3 3 3 3 3 4 4 4 4 5 6 6 6 6 5 6 5 6 5 5 6 5 7 7 8 8 9 8 10 10 11 11 10 9 9 9 9 9 9 9 9 8 10 10 10 9 9 8 8 8 9 11 12 12 12 13 17 16 17 18 18 18 19 19 18 17 17 17 15 15 14 13 14 15 14 14 14 14 14 13 14 14 15
5 5 5 5 5 5 5 5 5 5 5 6 6 6 5 6 6 6 7 5 5 5 5 4 7 6 8 10 8 8 4 7 8 10 9 9 8 9 9 9 11 10 9 9 8 10 10 9 9 9 10 10 8 10 11 13 13 16 16 13 16 19 19 19 20 20 20 19 19 18 17 16 15 15 15 15 15 15 14 15 14 14 14 14 14
6 6 5 6 6 6 6 5 5 5 6 6 6 7 6 6 6 6 7 8 5 5 3 4 5 6 6 5 8 9 10 3 2 6 9 9 9 9 8 9 10 11 9 10 9 9 10 9 10 10 10 10 8 7 11 10 13 16 18 15 14 19 21 21 21 21 20 21 21 20 17 17 16 15 14 15 13 13 15 15 15 14 14 14 14
5 5 5 5 5 5 5 5 6 6 6 6 6 7 7 5 5 6 7 7 7 6 6 4 6 5 7 7 6 6 7 7 9 7 5 6 8 9 9 10 10 10 9 10 10 10 10 11 11 11 11 11 11 11 10 12 10 13 15 17 16 17 20 21 21 22 21 21 21 21 19 18 18 15 15 14 14 14 15 16 16 15 15 15 15
5 6 5 5 5 5 5 5 5 5 6 6 6 7 7 7 5 5 6 6 6 7 6 5 5 6 7 6 6 7 9 9 8 4 3 5 7 6 8 10 9 9 9 10 11 9 6 7 11 12 12 11 11 10 10 11 10 10 11 14 18 18 19 20 21 23 22 22 22 22 21 20 17 15 16 16 16 17 17 17 16 16 15 15 14
6 5 5 6 6 6 6 6 6 5 6 6 7 8 7 8 7 6 6 6 6 7 7 6 6 6 5 6 8 8 8 7 6 8 9 3 5 6 7 8 9 9 10 10 11 9 7 7 9 11 12 11 9 11 11 11 13 12 14 16 20 18 18 18 20 24 24 23 24 24 23 21 19 17 17 19 18 18 17 17 17 17 16 16 16
6 6 6 6 6 6 6 6 6 7 6 6 7 7 8 7 8 8 7 6 6 7 8 7 6 7 6 7 7 8 9 10 10 9 9 10 8 6 5 6 8 9 10 10 11 10 9 9 10 9 9 12 12 11 11 11 12 13 13 12 21 20 19 18 17 16 20 21 23 25 25 23 23 20 19 19 20 18 18 18 17 17 17 17 16
6 6 7 7 6 7 7 7 7 7 6 6 6 7 8 9 9 8 8 8 7 7 7 8 8 8 7 7 7 8 8 8 8 8 8 9 10 9 7 8 10 8 8 8 9 9 7 8 10 9 9 10 11 12 12 12 11 13 15 15 17 21 20 20 18 16 13 15 23 20 20 23 24 22 21 21 20 18 19 18 18 18 18 17 16
5 6 6 7 7 7 6 7 7 7 7 7 8 8 8 8 8 8 9 10 8 7 7 8 8 8 8 8 8 7 7 7 7 6 7 8 10 10 9 10 10 8 8 8 9 9 10 9 10 9 9 9 10 11 13 13 12 12 14 17 19 20 21 21 19 16 13 10 17 19 24 23 24 24 22 22 22 20 19 19 19 20 20 19 17
4 5 7 7 7 7 7 7 6 6 7 7 7 8 8 8 8 9 8 9 8 10 9 8 8 8 9 8 9 9 8 9 8 8 8 7 9 10 9 10 10 12 8 9 10 11 12 12 9 9 11 9 11 11 10 13 15 15 15 17 20 19 21 21 19 18 14 12 14 20 24 24 24 24 23 22 23 22 22 22 21 20 20 20 19
5 5 6 7 6 7 8 7 7 7 8 8 8 8 8 8 7 7 7 8 8 9 9 10 11 10 10 9 9 9 9 9 8 7 8 10 9 11 11 9 11 11 9 7 9 9 11 12 12 11 11 11 12 8 10 12 13 17 13 17 20 21 21 20 20 18 16 15 15 18 22 24 25 24 24 24 23 23 23 23 23 21 21 20 21
5 5 6 7 7 6 7 7 7 7 8 8 8 9 8 8 8 8 8 8 8 9 9 10 11 10 10 11 11 10 10 10 9 8 8 8 10 12 11 9 11 11 10 11 9 8 9 11 12 12 12 11 13 10 10 10 10 16 19 14 21 20 21 21 20 20 18 17 16 17 20 25 25 23 24 24 23 24 24 23 20 18 18 18 19
5 6 6 7 7 7 7 7 8 8 8 9 9 9 9 8 8 8 9 8 8 10 9 10 10 10 10 10 11 12 11 10 10 9 9 9 10 11 11 11 10 12 11 10 11 10 9 10 10 9 8 10 12 8 9 13 16 13 18 17 18 21 22 22 22 20 19 19 17 18 18 19 21 23 24 24 23 21 22 20 19 17 17 17 17
5 6 7 7 7 7 7 7 9 9 9 9 9 9 10 9 8 9 9 8 9 9 9 10 10 11 11 10 10 10 11 11 10 10 10 9 9 9 9 11 11 11 12 10 11 12 12 7 8 9 11 11 12 11 11 12 10 16 18 18 13 22 21 23 21 21 20 20 19 18 18 18 19 18 19 20 19 20 19 19 19 18 17 17 17
6 6 7 7 8 8 8 8 8 8 9 9 9 8 9 8 8 8 9 8 9 11 10 10 10 11 11 10 10 9 10 11 12 11 11 11 11 10 9 9 10 13 12 13 10 10 11 11 7 9 10 11 11 10 12 13 11 13 15 14 16 15 22 23 23 22 22 21 21 19 20 19 18 19 18 19 18 19 19 18 18 19 18 16 18
6 6 7 7 8 8 7 8 8 8 8 8 9 9 9 8 8 9 9 10 10 10 9 9 10 10 9 11 10 10 10 10 11 11 12 12 11 11 10 10 9 10 13 12 11 9 9 9 8 8 11 10 10 10 11 13 13 12 9 14 14 13 19 23 23 22 22 22 21 21 21 20 19 18 17 19 19 20 20 19 18 18 19 17 19
6 6 7 8 8 8 7 7 7 7 8 8 9 9 9 8 9 8 9 10 9 9 9 9 10 9 10 11 10 10 10 11 11 11 11 12 12 12 10 10 9 11 11 12 12 10 12 6 8 6 7 10 11 9 10 10 12 13 12 14 14 12 16 24 22 22 23 22 22 21 21 22 21 20 21 20 20 20 21 19 17 18 18 20 20
7 7 7 7 7 7 7 7 7 8 8 9 9 9 9 8 8 8 9 10 9 9 9 9 9 9 11 11 10 9 10 11 11 11 11 11 11 12 12 11 11 11 11 9 12 7 7 8 6 8 8 8 9 10 10 9 11 13 12 10 10 14 15 17 23 24 23 23 22 21 21 21 22 21 21 20 21 21 22 20 19 17 16 22 20
8 8 8 7 7 7 7 7 8 8 9 9 9 9 9 9 8 8 9 10 10 10 10 9 9 10 11 11 11 10 11 10 10 10 11 11 11 12 12 12 12 11 11 12 11 17 9 8 7 6 9 9 9 9 10 12 12 16 12 13 12 13 16 11 22 26 26 24 23 21 21 21 22 22 21 21 22 23 22 21 19 17 20 21 20
8 8 8 7 7 7 8 8 9 9 9 9 8 8 9 10 9 9 10 10 11 10 10 11 11 10 10 11 12 12 12 12 11 11 10 11 12 11 11 12 12 12 13 12 13 14 11 8 8 8 8 9 9 11 12 12 12 11 13 12 11 11 12 12 11 19 21 23 23 22 22 22 22 21 22 22 23 24 22 22 21 21 20 20 20
7 8 8 7 7 8 8 9 9 9 10 10 10 9 9 10 10 8 9 11 11 11 10 11 12 10 11 12 12 12 11 12 12 12 11 11 12 12 11 11 11 13 12 12 13 12 12 7 8 8 8 9 9 10 12 13 12 11 11 12 12 13 13 12 10 13 25 22 23 23 23 22 22 22 23 22 23 23 22 22 22 21 21 21 20
7 8 8 8 8 8 9 9 9 10 10 10 9 9 9 10 10 10 10 11 11 12 12 12 12 12 12 12 12 12 11 12 12 11 12 12 12 13 14 12 12 12 12 12 12 14 14 12 10 10 8 8 10 11 11 11 11 11 10 15 14 14 12 13 12 11 20 24 24 23 24 23 23 23 23 23 22 22 23 22 22 22 22 21 20
8 7 8 8 8 9 9 9 10 10 11 10 10 10 10 10 11 11 11 11 11 11 12 12 12 12 13 13 12 13 13 14 13 12 12 13 13 13 14 13 13 14 12 11 11 12 12 14 13 11 8 8 10 10 9 10 12 11 12 12 13 13 14 13 14 13 17 27 26 25 24 24 24 23 23 23 23 22 23 23 23 22 22 22 21
8 7 7 8 8 9 9 10 10 11 11 11 12 12 11 10 11 11 11 11 11 12 11 12 12 12 12 13 13 13 13 13 13 13 13 16 14 13 14 14 13 13 12 12 13 13 14 15 13 12 11 10 10 8 9 9 10 12 11 11 13 13 13 12 13 14 15 24 27 26 24 25 25 25 24 24 24 24 24 23 23 23 23 22 22
8 8 9 8 8 9 10 10 11 11 11 12 12 12 12 11 11 11 10 11 11 11 11 12 12 12 12 13 13 13 13 14 14 15 16 17 16 15 16 15 15 14 14 14 13 13 14 14 13 14 12 12 10 10 10 10 11 9 9 10 10 12 13 14 14 13 12 8 9 15 22 23 25 26 26 25 25 25 24 24 24 24 23 23 23
9 9 9 9 8 9 10 10 11 12 12 13 13 13 12 11 11 11 11 11 12 11 11 13 13 13 13 13 13 13 14 14 15 16 16 17 15 18 16 16 15 15 15 14 13 14 13 14 14 12 12 10 10 11 9 8 10 12 11 10 10 11 11 12 13 13 12 12 15 23 20 19 22 21 23 25 25 25 25 25 24 25 24 24 24
9 9 8 8 8 8 9 10 11 11 12 13 14 14 12 11 10 10 11 11 12 12 12 13 13 13 14 14 13 14 14 14 16 16 16 15 15 17 16 15 16 16 15 14 14 13 13 13 13 13 11 12 9 9 7 7 10 10 9 9 11 10 11 11 12 12 12 10 10 12 17 20 18 23 25 25 26 25 25 24 26 25 26 24 24
7 8 8 9 9 9 10 10 11 11 11 11 13 14 13 11 9 10 11 11 12 12 13 13 13 14 14 14 14 14 16 19 17 15 15 15 15 16 17 17 17 16 15 14 13 13 13 13 13 12 11 12 12 10 8 9 11 12 8 9 12 9 8 9 11 12 11 10 8 11 12 14 16 15 13 13 16 22 22 24 22 26 25 24 25
8 8 8 8 8 9 10 10 10 10 11 10 17 20 15 10 9 9 10 11 12 12 13 14 14 14 15 14 14 21 18 18 18 17 17 19 19 17 16 16 17 17 16 16 14 13 13 14 14 13 14 12 11 11 10 10 9 8 8 9 11 10 9 10 9 10 10 11 7 9 9 11 10 13 12 12 14 18 14 16 16 19 23 25 25
8 8 8 9 8 8 9 10 11 10 10 12 18 17 17 17 11 10 11 11 12 13 13 14 14 15 15 15 15 17 19 20 20 21 21 23 22 20 19 19 18 16 16 16 16 14 13 13 15 14 13 14 13 13 11 10 8 9 8 6 8 8 10 11 12 7 9 13 8 6 7 9 12 11 10 11 12 13 14 17 23 25 26 26 26
8 7 8 8 8 8 7 9 11 11 11 17 18 19 17 18 15 11 9 11 11 12 13 14 13 14 15 15 15 14 15 18 18 19 24 26 23 22 20 20 19 19 16 15 14 15 14 13 14 15 15 15 13 12 10 10 10 10 11 11 10 9 10 10 10 9 5 12 11 7 8 9 11 10 11 12 14 14 17 20 27 26 27 27 27
8 9 8 8 8 8 8 9 11 12 13 17 17 18 17 18 18 15 8 12 12 12 13 14 14 15 15 15 15 15 15 23 19 20 21 22 23 23 20 20 18 18 18 12 10 13 15 16 16 16 15 15 16 13 12 11 10 11 9 10 11 9 7 9 10 7 4 10 11 8 8 8 11 11 8 11 15 14 15 19 24 24 26 27 27
8 8 8 9 8 8 8 8 9 11 14 16 16 18 17 18 18 16 9 12 12 12 14 14 13 15 16 16 16 17 17 18 17 20 21 20 20 19 19 18 18 19 17 13 17 18 12 12 15 17 17 15 13 13 13 11 11 10 10 11 9 9 12 14 11 9 6 10 13 9 8 8 9 9 10 12 13 15 15 21 25 26 27 28 28
7 8 8 9 8 8 8 8 8 10 11 18 17 18 19 19 20 15 12 11 12 12 13 14 14 15 15 15 17 17 17 17 18 23 21 19 18 16 18 17 17 17 16 16 17 15 14 11 11 13 15 15 13 11 9 9 9 9 10 11 11 11 11 7 6 7 5 9 11 9 9 5 6 9 10 11 10 13 14 19 26 27 28 28 29
7 7 7 8 9 10 9 8 9 10 12 18 17 18 19 19 21 6 10 11 13 13 13 14 14 13 14 15 16 16 17 17 22 25 23 19 16 17 17 17 17 16 15 16 15 16 14 12 10 10 10 11 9 7 7 6 7 7 7 5 4 6 7 8 10 5 6 7 10 10 8 6 8 11 10 9 9 10 14 12 21 27 28 28 28
7 8 7 8 8 9 10 10 9 10 12 16 17 17 18 20 16 8 10 11 13 13 13 13 13 13 12 12 16 16 16 17 21 22 23 23 15 17 17 17 15 15 16 16 16 17 17 17 16 15 15 14 10 11 12 12 7 5 4 5 8 6 8 7 7 7 8 7 8 10 7 6 7 9 8 4 7 11 12 9 11 23 27 28 29
7 7 7 7 8 9 11 11 10 10 11 14 15 16 18 20 18 10 9 11 13 13 13 13 13 13 13 15 19 18 17 18 21 22 22 21 16 17 18 19 18 18 18 17 15 15 18 16 16 18 15 14 12 9 10 12 13 9 2 4 5 8 9 9 8 8 5 7 6 6 6 4 5 5 3 3 4 5 4 3 10 17 24 25 29
6 6 6 7 7 8 10 11 12 11 10 12 14 15 17 19 17 9 11 11 12 13 13 13 13 12 13 14 17 18 17 18 20 21 23 22 17 17 18 18 18 18 17 18 16 17 15 14 15 15 13 15 12 9 9 11 10 11 8 7 6 4 5 6 9 3 4 6 7 9 8 2 6 2 6 4 1 2 2 4 4 4 11 14 17
Wind_Direction
63 61 25 25 19 359 273 199 218 215 192 271 283 256 244 243 237 241 222 234 228 228 233 232 203 211 238 239 244 249 250 257 261 258 258 270 260 162 175 183 198 207 217 226 230 237 214 211 228 220 210 210 214 232 231 220 208 194 192 203 183 199 185 173 172 162 161 151 144 149 150 158 155 157 134 129 139 134 118 121 115 113 109 106 106
19 25 24 1 343 302 263 270 259 184 221 234 245 271 290 278 254 250 256 224 240 225 237 234 230 223 223 237 234 238 258 264 265 261 270 259 249 165 175 178 199 201 218 232 239 236 244 223 229 228 222 208 205 209 216 217 206 208 195 196 192 219 204 180 182 171 167 162 157 156 152 148 157 156 149 151 152 136 137 122 121 120 115 113 107
352 39 59 321 353 295 271 273 227 227 244 257 257 274 276 284 285 291 279 271 260 241 233 246 238 237 221 227 235 229 239 260 272 277 279 268 254 238 181 181 193 203 210 223 238 235 246 217 227 220 229 219 204 209 203 201 204 211 216 205 204 208 210 185 205 178 175 168 164 159 156 154 156 157 163 167 153 135 140 128 126 125 123 116 113
60 55 33 86 228 248 289 281 242 204 229 264 274 285 279 279 296 285 284 273 260 256 244 253 254 252 248 233 223 239 237 245 269 278 272 272 271 251 236 187 192 200 206 210 215 231 239 226 219 224 222 218 207 219 201 204 206 206 210 202 198 204 219 197 202 190 185 176 168 166 158 158 160 161 168 149 143 142 134 140 130 131 129 125 120
126 98 79 120 113 355 245 291 305 329 292 312 291 264 256 246 233 248 259 263 268 259 250 244 249 255 262 267 264 240 250 282 275 271 278 272 264 270 254 226 204 195 202 208 209 217 230 236 235 228 221 217 216 221 206 210 201 200 208 204 197 202 211 200 203 196 189 182 172 170 160 160 165 163 162 156 152 154 157 142 139 133 136 129 125
127 124 139 138 108 165 17 286 338 339 308 255 251 263 272 281 291 280 269 271 267 265 264 257 250 245 244 250 247 249 233 224 239 253 265 272 272 257 254 247 233 203 205 200 202 210 225 236 241 231 222 219 217 227 210 217 186 190 209 205 202 205 205 197 207 195 191 188 182 173 168 164 162 164 166 167 160 157 160 158 148 139 136 129 126
128 133 137 140 145 148 235 6 333 315 288 244 294 259 250 252 251 265 279 270 280 285 280 272 268 262 253 247 251 243 234 237 231 240 237 250 257 252 242 245 235 237 214 203 195 204 211 226 236 240 225 219 220 220 226 228 184 188 204 206 207 209 209 202 207 199 192 196 185 177 171 167 163 164 167 165 159 159 161 159 145 141 137 131 130
150 149 161 149 141 142 116 56 333 293 319 325 296 289 296 281 269 265 267 262 253 256 260 269 268 265 266 261 253 252 262 257 246 241 242 249 251 250 242 235 235 228 228 222 201 201 203 211 223 231 236 224 218 221 222 218 201 203 207 208 210 204 201 203 207 198 190 199 193 178 174 167 165 164 163 167 167 160 159 156 145 140 139 135 135
128 135 129 124 120 42 63 41 338 324 294 301 296 306 299 298 291 281 275 274 267 261 260 255 257 262 263 259 254 254 254 252 247 242 234 239 245 250 245 244 235 232 223 229 221 214 190 204 210 221 225 233 225 218 222 222 204 211 210 208 207 208 197 207 201 195 187 202 195 182 176 169 167 163 165 169 168 160 156 157 151 142 141 139 138
93 76 29 5 1 1 326 139 272 310 310 295 294 292 294 297 295 287 283 283 280 273 265 261 264 266 259 257 264 259 253 252 250 248 242 239 240 244 247 245 242 230 228 220 226 227 201 194 203 213 220 229 230 209 221 224 214 212 215 209 209 206 206 205 200 200 196 198 195 184 178 173 169 168 165 170 168 163 157 151 149 149 145 142 138
98 84 1 293 277 284 324 322 308 314 311 303 308 309 303 298 291 293 283 277 288 289 290 290 281 271 265 257 253 253 257 258 256 251 245 243 241 244 249 242 236 230 225 224 221 215 227 177 205 212 215 212 216 206 214 223 224 210 213 214 206 208 208 206 204 201 200 198 195 185 181 176 173 172 171 174 171 167 161 157 156 154 152 147 145
24 20 339 333 315 321 340 317 306 295 304 311 314 313 307 301 299 298 296 288 275 277 285 293 290 282 272 264 255 255 253 249 246 247 248 246 244 242 239 240 235 229 227 226 215 216 218 220 204 212 217 199 200 199 206 214 230 219 215 215 208 208 210 208 206 200 197 199 192 186 186 182 175 176 179 179 174 171 166 163 160 155 154 151 149
23 23 356 342 322 327 319 309 297 311 319 308 313 316 310 304 301 301 296 298 298 290 282 281 293 287 276 266 263 248 243 245 245 242 242 241 242 240 238 237 234 230 223 221 222 217 218 218 227 226 215 215 199 197 201 209 222 223 214 213 208 205 209 207 208 199 196 197 194 188 187 184 180 178 187 185 178 174 171 167 160 156 154 153 153
31 25 358 335 342 327 319 315 318 331 314 312 312 314 310 310 303 301 297 295 294 304 303 307 281 293 306 300 283 266 238 235 240 245 244 237 237 240 240 237 237 233 232 227 224 223 217 217 223 223 223 225 203 207 202 211 216 213 207 211 204 209 207 207 208 202 196 197 194 189 187 186 180 181 187 192 182 176 173 166 162 160 158 156 154
28 25 1 358 346 336 334 335 332 329 318 317 318 321 320 319 324 318 314 305 301 293 285 281 300 304 297 295 294 299 254 222 236 244 234 236 237 239 238 239 239 236 234 230 223 228 220 215 213 219 221 221 226 202 209 210 214 192 205 213 204 209 209 204 210 206 196 193 195 190 188 188 185 187 188 193 186 178 174 169 166 167 165 160 158
20 18 15 4 357 345 339 339 335 336 327 322 323 321 326 329 333 323 316 314 321 311 305 296 290 296 292 293 307 304 294 273 306 238 225 232 231 237 237 240 244 239 235 230 226 226 223 216 217 217 220 219 225 224 219 218 202 184 194 205 207 210 214 206 210 211 204 195 196 190 187 191 186 191 190 190 190 179 175 172 169 170 168 167 165
13 17 16 4 359 357 347 343 342 339 334 326 324 326 327 324 320 314 313 316 313 313 304 289 279 274 283 294 286 275 292 326 329 305 233 226 228 234 239 239 242 243 237 237 231 227 226 227 226 223 219 221 216 222 223 223 199 186 191 198 203 206 216 215 208 213 208 199 193 191 186 193 187 189 190 185 192 181 177 175 175 171 173 170 169
16 14 14 12 8 4 3 348 353 351 346 331 328 326 323 324 335 316 312 310 309 304 302 297 285 280 273 270 264 278 303 315 308 311 335 268 270 249 236 237 241 243 239 241 236 235 230 220 231 224 221 218 215 220 222 226 224 200 212 199 198 202 212 218 211 215 211 200 193 193 187 192 189 182 187 187 186 180 179 180 176 174 176 174 172
26 16 18 21 15 16 13 6 2 354 349 343 341 335 332 333 331 326 312 307 301 299 301 305 298 263 261 272 279 280 282 288 297 305 299 285 256 266 252 242 241 236 243 246 240 227 227 237 243 232 223 222 215 225 221 217 222 229 200 199 183 199 208 217 221 215 216 200 197 195 189 190 190 181 186 186 183 181 179 182 180 178 177 176 178
28 29 28 23 16 12 12 12 7 10 1 3 350 346 339 336 339 333 327 314 306 300 305 301 297 300 301 287 278 275 272 272 273 282 288 289 279 244 229 265 240 233 234 239 239 234 225 224 235 242 238 224 220 219 218 218 222 219 217 188 179 192 205 214 224 229 224 206 205 201 191 189 192 188 185 183 184 180 181 182 182 181 179 178 179
33 33 31 31 24 20 19 19 11 7 356 349 344 342 342 336 336 334 330 318 311 303 293 300 299 298 301 288 287 283 285 280 277 266 274 283 281 277 269 202 229 241 235 230 230 228 224 228 239 231 234 243 227 217 217 216 219 217 220 182 183 191 201 211 217 224 241 223 209 210 199 187 192 191 190 184 184 185 182 183 183 183 180 179 182
45 34 28 26 23 20 20 19 12 7 360 354 352 349 348 340 339 335 330 325 317 308 311 305 299 300 298 297 293 290 280 272 263 262 259 250 277 289 288 292 280 261 224 218 221 224 222 217 226 232 239 234 236 221 219 218 214 218 218 182 183 193 199 207 211 217 219 207 204 201 203 190 191 192 190 185 185 186 184 183 186 182 181 180 183
27 30 25 10 12 15 7 5 360 353 351 344 344 341 337 333 330 328 323 324 318 323 312 301 301 301 298 296 292 292 293 290 296 295 288 283 284 278 278 277 279 278 256 224 224 229 227 225 224 224 229 239 243 228 224 222 218 218 216 177 182 189 199 204 207 208 208 204 203 206 202 194 193 191 188 188 187 188 187 186 187 188 185 183 184
21 22 21 1 5 9 359 351 354 350 350 345 339 337 333 331 325 326 327 331 333 331 324 320 322 313 306 303 299 296 290 287 290 287 288 286 284 287 286 288 285 277 276 252 236 235 227 224 224 224 223 228 235 229 230 228 221 223 219 177 183 189 197 203 203 204 200 200 200 206 206 199 197 192 188 190 188 190 189 189 189 188 188 188 187
27 19 18 4 11 11 5 6 4 4 358 352 346 343 342 330 330 329 332 326 326 330 321 321 322 319 321 317 307 302 297 298 293 288 283 280 279 283 279 280 282 286 285 284 265 240 236 234 226 224 225 227 236 222 225 235 232 214 214 182 187 188 197 202 202 202 198 197 199 204 211 206 201 197 193 192 190 191 193 191 190 189 188 190 191
33 31 18 13 15 14 15 360 358 353 349 345 344 338 340 331 328 334 332 329 330 328 319 322 319 319 319 316 314 311 307 302 296 288 285 281 280 279 289 292 284 280 279 274 269 265 243 238 232 219 217 236 234 208 218 231 229 215 202 209 183 192 197 201 203 201 200 196 198 201 205 203 206 202 198 195 192 191 192 191 189 187 186 187 192
40 36 24 23 21 21 19 10 7 3 1 358 353 353 354 342 346 344 340 342 337 330 322 321 319 323 324 317 316 311 311 313 312 303 291 281 279 288 288 284 279 277 285 277 274 255 259 242 221 231 234 224 227 219 216 231 235 221 193 211 196 190 196 200 201 200 198 197 197 199 202 203 203 204 201 194 196 188 196 192 189 185 186 187 189
45 35 31 25 25 18 21 20 12 10 6 3 360 360 355 355 355 353 350 352 339 338 334 330 327 327 320 323 315 309 311 307 309 308 301 296 290 280 273 276 287 291 283 282 272 260 247 250 227 217 224 228 225 213 222 229 229 223 197 205 217 193 195 197 200 200 198 198 197 198 200 203 201 200 194 195 198 190 198 196 190 185 187 188 185
45 38 34 34 32 27 27 21 19 13 5 6 1 3 360 0 358 354 354 349 345 344 344 343 339 332 330 327 319 313 308 313 308 308 311 310 302 298 288 274 274 281 289 288 284 278 272 218 242 216 215 230 234 224 221 222 218 216 206 215 214 216 188 199 198 200 198 198 198 198 197 199 200 196 192 196 197 192 198 199 190 187 186 189 187
51 45 42 38 37 32 24 20 15 11 9 9 4 5 4 3 358 357 358 350 347 344 346 345 342 340 337 332 329 320 321 319 318 315 308 302 297 295 286 277 262 265 272 283 286 279 282 235 216 239 204 217 232 238 239 229 225 207 221 224 215 209 184 195 199 200 199 197 198 197 197 197 198 197 196 195 196 193 195 198 191 188 188 191 190
59 55 49 42 37 30 23 18 15 13 11 11 7 9 6 5 359 357 358 354 352 349 348 346 343 339 337 335 335 330 332 328 321 316 313 307 304 306 305 299 279 264 264 261 275 267 258 266 231 225 229 218 216 221 227 233 228 222 222 229 222 199 205 193 200 200 199 197 196 197 197 196 197 198 198 196 195 195 195 196 194 188 189 193 191
59 52 47 43 36 28 27 20 19 15 14 12 10 6 8 7 358 358 357 355 354 354 351 350 347 342 339 337 334 331 332 328 324 323 318 313 311 308 304 306 308 303 276 264 266 279 270 259 257 233 225 233 215 220 228 227 223 215 221 221 219 198 204 200 203 201 198 197 195 197 196 195 195 197 197 196 195 196 196 195 193 187 188 192 190
59 56 53 44 37 30 27 23 18 17 11 12 11 6 11 5 358 355 353 353 353 354 349 349 349 344 340 335 334 335 334 330 327 323 318 319 317 315 318 317 316 316 314 306 284 279 278 256 243 247 223 224 237 224 228 231 229 221 219 222 218 214 209 213 203 205 202 197 196 196 199 197 195 196 196 196 194 195 194 194 192 190 189 191 189
63 61 56 48 37 34 28 24 23 17 13 12 7 8 11 6 0 356 350 351 354 351 348 348 347 347 340 338 338 341 340 332 329 325 327 327 327 322 315 311 307 308 312 311 304 295 287 274 254 238 235 212 237 221 228 229 228 224 215 216 215 214 209 208 200 194 199 203 200 196 197 198 196 197 197 195 195 194 192 192 191 189 190 189 190
67 58 54 50 43 36 34 31 24 19 15 10 7 3 9 7 0 358 353 352 350 347 348 348 347 343 343 340 340 342 341 336 334 332 332 331 329 322 317 314 308 306 306 306 305 300 299 291 277 265 230 216 219 237 227 230 231 219 209 213 210 212 212 205 204 201 190 200 203 199 198 198 196 198 197 195 195 193 192 190 190 189 190 188 189
70 62 57 53 47 41 38 33 29 24 16 12 7 3 5 4 3 359 357 355 352 350 349 348 346 344 345 343 344 344 343 339 340 338 337 337 330 325 319 316 313 309 305 302 296 297 299 299 291 278 257 226 233 226 232 227 232 226 224 217 212 211 215 211 205 211 192 197 199 200 198 198 198 197 197 196 195 195 193 190 189 190 189 188 187
66 66 62 55 51 47 41 34 31 25 19 12 8 2 1 358 3 1 358 355 355 354 353 349 350 349 347 344 345 345 343 341 341 340 339 335 332 326 322 319 315 311 308 305 302 296 293 292 292 289 268 255 250 225 212 230 236 232 227 219 212 214 215 211 212 208 203 193 198 199 199 200 198 196 197 197 196 194 194 192 190 189 189 188 188
70 65 64 56 51 52 45 38 31 26 21 14 8 2 358 355 0 2 359 356 356 355 353 353 352 353 350 349 349 348 348 345 342 340 338 334 331 327 323 319 314 311 308 305 300 297 294 289 290 291 278 261 255 245 224 213 228 231 226 224 222 218 214 219 220 212 209 188 188 200 201 199 198 197 198 197 196 194 193 192 191 189 189 189 189
68 68 64 64 58 51 48 40 34 28 23 17 9 1 357 355 3 2 2 360 357 358 356 354 356 355 354 353 350 351 350 347 345 341 336 334 331 324 320 316 312 311 307 302 301 296 290 286 285 279 273 258 244 257 235 209 223 229 230 230 226 219 217 217 220 220 215 203 199 195 193 196 198 199 199 199 197 196 194 193 191 190 190 190 190
63 63 62 63 61 54 47 44 37 29 24 20 12 1 356 359 360 6 5 3 0 1 358 358 359 357 356 356 353 351 348 346 344 338 337 334 327 320 318 315 312 308 304 301 298 294 289 289 283 284 285 281 260 237 229 214 227 231 224 226 231 218 214 215 218 215 220 203 190 199 202 198 196 198 196 199 199 197 195 194 193 191 191 190 190
61 60 61 59 57 55 51 45 39 32 26 21 14 3 0 2 359 6 9 4 4 3 359 360 358 358 358 355 352 350 345 341 337 333 328 324 323 318 313 313 311 308 303 299 298 292 291 285 281 277 272 264 252 244 226 222 220 225 214 217 236 229 221 221 222 220 215 205 188 195 194 187 192 199 202 199 201 198 197 196 196 195 193 192 190
63 60 61 57 55 53 50 44 40 35 28 23 1 357 354 354 352 3 13 9 8 7 3 2 358 359 360 355 349 349 343 342 338 336 331 322 315 310 307 309 307 303 299 295 289 289 292 286 281 281 280 276 265 251 234 223 223 228 229 220 229 230 224 223 222 220 208 214 189 194 190 184 185 197 192 196 197 192 197 195 198 194 195 192 191
61 61 56 57 52 49 49 45 39 36 31 13 355 358 349 344 339 347 20 12 12 11 8 6 1 358 358 354 350 348 347 345 342 340 333 326 319 313 306 295 288 282 287 284 281 279 280 282 285 280 274 270 264 259 236 229 214 211 218 209 223 217 223 222 228 222 199 206 201 178 186 176 178 191 185 181 193 187 194 195 197 192 193 191 191
60 59 57 53 53 50 48 48 43 35 30 12 358 358 349 342 338 330 17 16 15 14 9 8 4 2 357 351 349 348 348 346 344 342 336 329 323 319 314 307 300 285 258 246 272 285 277 278 282 281 281 277 280 273 249 231 223 220 225 226 222 219 217 221 224 218 197 189 207 198 193 172 179 189 188 189 182 188 198 196 195 192 190 191 192
62 58 54 52 51 49 47 49 45 35 27 10 356 358 348 341 336 326 25 20 19 18 12 10 8 5 360 353 350 348 347 348 349 347 339 333 329 326 325 326 324 323 316 311 263 250 277 279 275 272 271 281 285 281 269 246 232 231 221 223 227 219 216 225 227 222 172 184 202 206 201 174 178 196 195 184 191 197 196 198 194 193 190 191 193
63 61 56 51 48 47 43 44 48 39 27 7 359 357 350 341 337 323 34 22 23 20 16 14 11 7 5 359 351 348 348 348 351 346 340 336 334 337 339 338 337 334 329 335 344 327 293 272 268 268 275 279 282 289 296 275 224 224 223 228 216 220 224 226 224 216 186 172 197 212 218 186 172 183 204 202 194 198 199 196 192 194 192 192 193
61 58 53 53 48 45 44 43 47 44 31 10 5 358 354 343 337 316 33 24 25 22 19 15 14 11 8 1 353 350 347 348 352 344 340 337 338 343 341 340 342 341 339 344 342 337 326 317 315 298 283 272 277 296 297 309 268 223 218 222 217 219 225 229 244 225 194 192 188 193 231 204 154 191 206 200 193 202 200 197 192 193 193 192 192
68 67 62 56 53 49 42 41 46 43 35 18 5 2 353 351 327 1 25 27 24 24 21 15 16 14 11 5 0 355 350 351 351 340 340 336 345 350 347 344 345 346 345 341 337 329 323 321 314 314 318 320 323 320 336 316 297 279 249 240 229 228 228 224 229 197 205 187 191 189 211 203 177 193 208 203 191 199 202 204 193 193 193 192 191
69 69 68 60 55 52 45 40 43 46 39 21 10 5 357 355 338 29 23 29 27 23 23 16 17 17 16 18 10 3 359 359 348 341 342 339 355 357 354 351 348 349 345 340 338 332 328 328 333 326 316 316 326 348 354 351 340 311 264 226 219 207 225 228 219 202 207 176 198 199 201 209 179 193 203 205 206 204 201 180 168 195 194 192 190
72 70 71 68 63 57 53 45 33 47 45 32 15 8 3 2 346 19 22 26 27 22 20 20 19 17 21 44 21 10 5 1 347 346 348 349 359 359 357 355 353 353 347 339 340 341 336 334 351 345 326 319 324 331 0 359 2 359 335 248 263 221 219 224 224 209 186 184 199 178 204 220 135 160 113 49 37 14 351 261 203 195 195 193 190
77 75 67 67 65 61 60 57 38 41 47 40 24 13 11 7 358 8 28 27 25 24 20 20 20 16 14 27 28 8 358 351 348 352 354 358 4 7 1 1 357 352 342 331 341 338 338 346 356 346 347 345 345 348 351 345 11 28 25 14 355 330 253 224 227 197 170 213 189 172 199 205 150 79 132 107 50 351 9 340 342 227 200 194 195